Location: Cactus School
(34.5700°N, 118.0931°W)
Time: 08:29:16
(UTC-07:00)

Vanguard 1 Rocket - Pass Details

Date: 24 April 2024
Orbit: 650 x 4220 km, 34.3° (Epoch: 22 May)

Event Time Altitude Azimuth Distance (km) Brightness Sun altitude
Rises 21:09:19 0° 277° (W) 3,202 11.4 -19.0°
Reaches altitude 10° 21:11:17 10° 276° (W) 2,437 10.5 -19.3°
Maximum altitude 21:16:51 78° 191° (S) 1,168 7.8 -20.3°
Enters shadow 21:21:34 31° 110° (ESE) 2,388 8.9 -21.1°
